Tracking 17261 objects as of 28-August-2015
HD Live streaming from Space Station

THORAD AGENA D DEB

Track THORAD AGENA D DEB now!
10-day predictions
THORAD AGENA D DEB is classified as:


NORAD ID: 4177
Int'l Code: 1969-082AV
Perigee: 858.3 km
Apogee: 1,028.3 km
Inclination: 70.1 °
Period: 103.8 minutes
Semi major axis: 7314 km
RCS: 0.0743 m2 (small)
Launch date: September 30, 1969
Source: United States (US)

Note: This is SATELLITE DEBRIS
Your satellite tracking list
Your tracking list is empty





NASA's NSSDC Master Catalog

Two Line Element Set (TLE):
1 04177U 69082AV  15237.21071370  .00000179  00000-0  18345-3 0  9994
2 04177 070.0697 260.9739 0116223 089.5762 271.8657 13.87858039308119

Source of the keplerian elements: AFSPC

N2YO: 1783